Regional Weather Roundup
Issued by NWS

Home | Current Version | Previous Version | Text Only | Print | Product List | Glossary Off
Versions: 1 2 3 4 5 6 7 8 9 10 11 12 13 14 15 16 17 18 19 20 21 22 23 24 25 26 27 28 29 30 31 32 33 34 35 36 37 38 39 40 41 42 43 44 45 46 47 48 49 50

000
ASUS43 KLSX 221007
RWRMO

WEATHER SUMMARY FOR MISSOURI
NATIONAL WEATHER SERVICE SPRINGFIELD MO
500 AM CDT FRI MAY 22 2015

NOTE: "FAIR" INDICATES FEW OR NO CLOUDS BELOW 12,000 FEET WITH NO
       SIGNIFICANT WEATHER AND/OR OBSTRUCTIONS TO VISIBILITY.
       CURRENT SKY AND/OR WEATHER CONDITIONS ARE NOT AVAILABLE FOR
       CHILLICOTHE AND FARMINGTON.

MOZ001>031-035>038-043-044-053-054-221100-
...NORTHERN AND WESTERN MISSOURI...

CITY           SKY/WX    TMP DP  RH WIND       PRES   REMARKS
KANSAS CTY INT MOCLDY    53  44  71 NW5       30.22R
KANSAS C DTWN  CLEAR     52  46  80 CALM      30.22R
LEE`S SUMMIT   CLEAR     51  43  74 CALM      30.22R
ST JOSEPH      CLEAR     46  44  93 CALM      30.22R
CHILLICOTHE      N/A     47  44  90 CALM      30.22R
KIRKSVILLE     CLEAR     51  43  74 W6        30.19S

$$
MOZ066>068-077>081-088>096-101>105-221100-
...SOUTHWEST MISSOURI...

CITY           SKY/WX    TMP DP  RH WIND       PRES   REMARKS
SPRINGFIELD    CLEAR     44  40  85 CALM      30.22R
JOPLIN         CLEAR     47  44  90 E5        30.24R

$$
MOZ032>034-039>042-045>050-055>058-069>072-221100-
...CENTRAL MISSOURI...

CITY           SKY/WX    TMP DP  RH WIND       PRES   REMARKS
COLUMBIA       CLEAR     50  44  80 W5        30.21S
JEFFERSON CITY CLEAR     46  44  93 CALM      30.22S
ROLLA          CLEAR     43  41  93 SW6       30.21R
SEDALIA        CLEAR     52  43  71 W3        30.23S
WHITEMAN AFB   CLEAR     48  44  87 CALM      30.21R
WARRENSBURG    CLEAR     46  43  87 CALM      30.22S
OSAGE BEACH    CLEAR     43  39  87 CALM      30.22S

$$
MOZ051-052-059>065-221100-
...EAST CENTRAL MISSOURI...

CITY           SKY/WX    TMP DP  RH WIND       PRES   REMARKS
ST LOUIS INTL  CLEAR     53  43  68 W6        30.21R
SPIRIT OF STL  CLEAR     49  44  83 CALM      30.20S
ST CHARLES     CLEAR     49  44  83 SW7       30.20R

$$
MOZ072>076-082>087-097>100-106>115-221100-
...SOUTH CENTRAL AND SOUTHEAST MISSOURI...

CITY           SKY/WX    TMP DP  RH WIND       PRES   REMARKS
CAPE GIRARDEAU CLEAR     45  45 100 CALM      30.25S FOG
FARMINGTON     CLEAR     39  37  93 CALM      30.27R
POPLAR BLUFF   CLEAR     45  42  89 NW3       30.25R
WEST PLAINS    CLEAR     40  37  89 CALM      30.24S

$$


USA.gov is the U.S. government's official web portal to all federal, state and local government web resources and services.